Location: LDNL
(36.4545°S, 141.6685°E)
Time: 12:23:52
(UTC+10:00)

Vanguard 3 - Pass Details

Date: 29 January 2022
Orbit: 508 x 3258 km, 33.3° (Epoch: 25 May)

Event Time Altitude Azimuth Distance (km) Brightness Sun altitude
Rises 01:26:30 0° 291° (WNW) 3,887 - -35.2°
Reaches altitude 10° 01:28:42 10° 293° (WNW) 3,189 - -35.3°
Maximum altitude 01:36:58 70° 15° (NNE) 1,902 - -35.4°
Exits shadow 01:38:05 66° 47° (NE) 2,018 8.7 -35.4°
Drops below altitude 10° 01:51:59 10° 94° (E) 5,498 11.4 -35.4°
Sets 01:57:04 0° 95° (E) 6,826 12.0 -35.4°
